Regional Weather Roundup
Issued by NWS Charleston, SC

Current Version | Previous Version | Text Only | Print | Product List | Glossary Off
Versions: 1 2 3 4 5 6 7 8 9 10 11 12 13 14 15 16 17 18 19 20 21 22 23 24 25 26 27 28 29 30 31 32 33 34 35 36 37 38 39 40 41 42 43 44 45 46 47 48 49 50

000
ASUS42 KCHS 240127
RWRCHS

REGIONAL WEATHER ROUNDUP
NATIONAL WEATHER SERVICE CHARLESTON SC
800 PM EST MON JAN 23 2017

NOTE: "FAIR" INDICATES FEW OR NO CLOUDS BELOW 12,000 FEET WITH NO
SIGNIFICANT WEATHER AND/OR OBSTRUCTIONS TO VISIBILITY.

NOT ALL STATIONS ARE QUALITY CONTROLLED. USE DATA WITH CAUTION...
ESPECIALLY DEWPOINT OBSERVATIONS.

SCZ027-030-031-034>040-042>050-240200-
...SOUTHEAST SOUTH CAROLINA...

CITY           SKY/WX    TMP DP  RH WIND       PRES   REMARKS
N CHARLESTON   PTCLDY    54  49  83 W5        29.43R
WATERFRONT PRK   N/A     56  52  86 VRB2      29.41R
MOUNT PLEASANT MOCLDY    55  52  88 W3        29.43R
JOHNS ISLAND   FAIR      55  52  88 SW3       29.44R
PINOPOLIS        N/A     55  54  94 W7        29.33R
MONCKS CORNER  FAIR      52  48  87 CALM      29.43R
SUMMERVILLE    MOCLDY    55  54  94 W6        29.44R
BEAUFORT MCAS  MOCLDY    61  51  70 W13       29.45R
BEAUFORT ARPT  MOCLDY    59  52  77 W10       29.46R
HILTON HEAD IS CLEAR     59  52  77 W10       29.48R
WALTERBORO     MOCLDY    55  52  88 W9        29.46R
ALLENDALE      MOCLDY    59  52  77 W8        29.47R

...SOUTHERN MIDLANDS AND PEE DEE...

CITY           SKY/WX    TMP DP  RH WIND       PRES   REMARKS
GEORGETOWN     CLOUDY    54  50  87 W5        29.42R
KINGSTREE      MOCLDY    54  46  76 W5        29.42R
ORANGEBURG     CLOUDY    58  49  72 NW8       29.43R
BARNWELL       CLOUDY    57  57 100 SW6       29.47R
AIKEN          CLOUDY    55  52  88 W8        29.50R
MANNING        MOCLDY    54  48  82 CALM      29.42R
COLUMBIA       CLOUDY    58  49  72 NW6       29.42R
SUMTER         CLOUDY    55  50  82 W6        29.40R
FLORENCE       CLEAR     53  49  86 W7        29.40R
MYRTLE BEACH   PTCLDY    54  46  76 W7        29.40R
N MYRTLE BEACH PTCLDY    52  49  89 W6        29.37R

$$

GAZ063-065-086>088-099>101-113>116-118-119-134>141-150-240200-
...SOUTHEAST GEORGIA...

CITY           SKY/WX    TMP DP  RH WIND       PRES   REMARKS
SAVANNAH ARPT  PTCLDY    58  48  69 W14       29.49R
HUNTER AAF     PTCLDY    58  53  83 W16G24    29.47R
FORT STEWART   CLEAR     59  48  67 W15       29.50R
STATESBORO     PTCLDY    58  51  76 NW13G24   29.52R
SYLVANIA       CLEAR    N/A N/A N/A NW15      29.51R
CLAXTON        FAIR     N/A N/A N/A W15G25    29.53R

...CSRA...CENTRAL AND FAR SOUTHEAST GEORGIA...

CITY           SKY/WX    TMP DP  RH WIND       PRES   REMARKS
THOMSON        CLEAR     56  50  79 NW8       29.57R
AUGUSTA-BUSH   MOCLDY    60  48  64 W17G30    29.47R
AUGUSTA-DANIEL CLOUDY    59  47  64 W13G22    29.49R
SWAINSBORO     FAIR      55  46  71 W13G23    29.55R
VIDALIA        CLEAR     59  52  77 NW12G20   29.56R
EASTMAN        FAIR      57  40  53 W6        29.62R
HAZLEHURST     FAIR      58  50  75 CALM      29.58R
ALMA           PTCLDY    58  48  69 W14G21    29.59R
WAYCROSS       CLEAR     59  53  80 W8        29.60R
JESUP          FAIR      59  48  67 W10       29.56R
BAXLEY         FAIR      59  52  77 NW15      29.58R
BRUNSWICK      CLEAR     59  52  77 W14       29.56R
SAINT SIMONS   CLEAR     59  51  75 W14G22    29.54R

$$

SCZ027-028-034-036>038-045-046-048>050-GAZ119-141-240200-
...LAKE AND SUPPLEMENTAL COASTAL OBSERVATIONS...

STATION/POSITION TIME  TEMP    WIND        PRES    WAVE   SWELL
                       AIR SEA DIR/SP/G            HT/PER HT/PER/DIR
                 (UTC) (F)     (DEG/KT/KT) (MB)    (FT/S) (FT/S/D)
WINYAH BAY       0030   55     280/  5      995.0R
LAKE MURRAY      0020   56     300/  4/  7  995.9R
ACE BASIN NERRS  0045   56        CALM      997.0R
FORT PULASKI     0100   60 59  290/ 20/ 26  998.3
SAPELO ISLAND    0100   60     280/ 15     1000.0

$$

ANZ835-935-AMZ111-154-330-350-352-354-370-450-454-472-240200-
...C-MAN AND BUOY OBSERVATIONS...

STATION/POSITION TIME  TEMP    WIND        PRES    WAVE   SWELL
                       AIR SEA DIR/SP/G            HT/PER HT/PER/DIR
                 (UTC) (F)     (DEG/KT/KT) (MB)    (FT/S) (FT/S/D)
BUOY 41004       0050   61 69  280/ 21/ 27  995.3R   8/ 8   5/200/ 8
BUOY 41008       0050   61 60  260/ 21/ 27  998.5R   4/ 5
FOLLY BEACH CMAN 0100   56     240/  4/  5  997.0R
CAPERS NEARSHORE 0008   58 57  280/ 12/ 16  995.4R
FRIPP NEARSHORE  0108   60 58  280/ 14/ 17  997.3R


STATION/POSITION TIME  TEMP    WIND        PRES    WAVE   SWELL
                       AIR SEA DIR/SP/G            HT/PER HT/PER/DIR
                 (UTC) (F)     (DEG/KT/KT) (MB)    (FT/S) (FT/S/D)
5E ST. MARYS GA  0100      62                N/A     3/ 3   2/ 70/14
FRYING PAN BUOY  0050   60 70  280/ 23/ 29  993.9R   9/10   7/190/10
BUOY 41025       0050   62 76  340/ 10/ 14  989.8R   7/11   7/160/11
CAPE LOOKOUT NC  0100   55     260/  8/ 10  991.2R
BUOY 41002       0050   69 71  260/ 23/ 29  993.0R  14/ 9
BUOY 41010       NOT AVBL
ST AUGUSTINE FL  0100   61 64  290/ 13/ 16 1003.2R


$$



USA.gov is the U.S. government's official web portal to all federal, state and local government web resources and services.